Location: Czu?�w
(50.1404°N, 18.9919°E)
Time: 03:15:50
(UTC+00:00)

SJ 16-02 - Pass Details

Date: 27 October 2020
Orbit: 605 x 617 km, 75.0° (Epoch: 24 November)

Event Time Altitude Azimuth Distance (km) Brightness Sun altitude
Rises 18:00:47 0° 346° (NNW) 2,897 5.1 -24.9°
Reaches altitude 10° 18:03:30 10° 2° (N) 1,989 4.0 -25.3°
Enters shadow 18:04:09 13° 8° (N) 1,806 3.7 -25.4°
